Location: Bonningues
(50.7927°N, 2.0150°E)
Time: 04:35:46
(UTC+00:00)

MTI - Pass Details

Date: 08 August 2020
Orbit: 394 x 402 km, 97.5° (Epoch: 23 September)

Event Time Altitude Azimuth Distance (km) Brightness Sun altitude
Rises 22:14:31 0° 14° (NNE) 2,325 8.3 -19.7°
Reaches altitude 10° 22:16:30 10° 16° (NNE) 1,462 7.1 -19.8°
Enters shadow 22:19:19 68° 44° (NE) 440 3.8 -20.0°
